Regional Weather Roundup
Issued by NWS

Home | Current Version | Previous Version | Graphics & Text | Print | Product List | Glossary On
Versions: 1 2 3 4 5 6 7 8 9 10 11 12 13 14 15 16 17 18 19 20 21 22 23 24 25 26 27 28 29 30 31 32 33 34 35 36 37 38 39 40 41 42 43 44 45 46 47
000
ASUS45 KSLC 260310
RWRUT

UTAH REGIONAL WEATHER ROUNDUP
NATIONAL WEATHER SERVICE SALT LAKE CITY UT
900 PM MDT SAT APR 25 2015

UTZ001>011-023>025-260400-

NORTHERN UTAH

CITY           SKY/WX    TMP DP  RH WIND       PRES   REMARKS
BRIGHAM CITY   CLOUDY    48  42  79 S13       29.72R
HILL AFB       NOT AVBL
LOGAN          CLOUDY    49  38  65 S14       29.70R
OGDEN          LGT RAIN  45  43  93 CALM      29.71F
PROVO AIRPORT  CLOUDY    45  39  81 SW10      29.73R
SALT LAKE CITY LGT RAIN  46  42  86 NW8       29.72R
VERNAL         CLOUDY    45  40  82 NW5       29.74F
WENDOVER       CLOUDY    46  37  71 N12       29.75R
HEBER CITY     MIX PCPN  41  36  81 CALM      29.72S
WEST JORDAN    CLOUDY    45  45 100 NW3       29.73R

$$

UTZ012>022-026-027-260400-

SOUTHERN/CENTRAL UTAH

CITY           SKY/WX    TMP DP  RH WIND       PRES   REMARKS
BLANDING       CLOUDY    48  37  64 SW26G41   29.86R
BRYCE CANYON   CLOUDY    35  29  78 SW9       29.77S WCI  28
CEDAR CITY     CLOUDY    38  36  92 CALM      29.75F
DELTA          CLOUDY    44  42  96 S16       29.71S
HANKSVILLE     CLOUDY    50  37  62 SW9G17    29.70F
MILFORD        CLOUDY    41  29  62 S17       29.73R
MOAB/CYNLANDS  CLOUDY    48  45  89 E7        29.70R
PRICE          RAIN      42  39  89 VRB3      29.72R FOG
ST GEORGE      CLOUDY    50  45  81 S8        29.76S
KANAB          CLOUDY    43  43 100 W5        29.80R

$$

REGIONAL REPORTS     COLORADO/ARIZONA

CITY           SKY/WX    TMP DP  RH WIND       PRES   REMARKS
CRAIG, CO      CLOUDY    48  35  60 SW20G29   29.80R
GRAND JUNCTION LGT RAIN  46  45  96 E6        29.72F
RIFLE          LGT RAIN  45  42  89 E6        29.80R
MONTROSE       CLOUDY    45  42  89 S5        29.78F
CORTEZ         MOCLDY    48  37  65 S3        29.78R
PAGE, AZ       CLOUDY    50  40  68 N9        29.74S
GRAND CANYON   LGT RAIN  37  36  96 S3        29.80F FOG
KINGMAN        MOCLDY    49  44  83 S9        29.73S
FLAGSTAFF      LGT RAIN  35  35 100 CALM      29.82S

$$

REGIONAL REPORTS    NEVADA/IDAHO/WYOMING

CITY           SKY/WX    TMP DP  RH WIND       PRES   REMARKS
LAS VEGAS, NV  CLOUDY    54  46  74 S7        29.70S
ELY            MOCLDY    38  31  76 NW15      29.79R WCI  29
ELKO           CLOUDY    43  32  65 NW5       29.84R
POCATELLO, ID  CLOUDY    50  34  54 SW14      29.75R
BURLEY         CLOUDY    44  34  67 W7        29.79R
EVANSTON, WY   LGT RAIN  36  34  92 N10       29.74S WCI  28
ROCK SPRINGS   CLOUDY    46  30  53 S14       29.75R
KEMMERER       LGT RAIN  36  34  93 NE3       29.77S

$$


USA.gov is the U.S. government's official web portal to all federal, state and local government web resources and services.